{"data":{"norad_id":49178,"intl_designator":"2021-082BA","name":"STARLINK-3086","alt_names":[],"object_type":"PAYLOAD","status":"ACTIVE","operator":null,"country":"US","launch_date":"2021-09-14","launch_site_code":"AFWTR","launch_vehicle":null,"mission":null,"orbit_class":"UNKNOWN","rcs_meters":null,"size_class":null,"mass_kg":null,"dimensions":null,"purposes":["comms"],"wikipedia_slug":null,"has_3d_model":false,"image_url":null,"decayed_at":null,"tle_current":{"epoch":"2026-09-20T00:33:09.211392Z","epoch_age_seconds":82479,"freshness":"FRESH","line1":"1 49178U 21082BA  26263.02302328  .00000849  00000+0  78962-4 0  9997","line2":"2 49178  70.0000 164.4611 0002814 271.1792  88.9045 14.98330585276246","mean_motion":14.98330585,"eccentricity":0.0002814,"inclination_deg":70,"raan_deg":164.4611,"arg_perigee_deg":271.1792,"mean_anomaly_deg":88.9045,"bstar":7.8962e-5,"rev_number":27624,"period_min":96.106961602202,"perigee_km":570.09829811032,"apogee_km":574.0098656512,"semimajor_km":6950.1910818808,"source":"CELESTRAK","updated_at":"2026-09-20T09:00:39.254625Z"}}}